User: anonymous   Login
Location: Mentone
(34.5413°N, 85.5351°W)
Time: 14:17:05
(UTC-05:00)
Language:

Centaur AC-72 - Orbit

View from above orbital plane
View from above orbital plane
View from above satellite
View from above satellite

Ground track
Ground track

The orbit data is extracted from the following two-line orbital elements,

1 21907U 92013B   14304.24960715 -.00000120  00000-0  00000+0 0  9511
2 21907 019.0737 216.6037 6942722 312.4380 136.5006 02.25607050186616
Epoch (UTC): 31 October 2014 05:59:26
Eccentricity: 0.6942722
inclination: 19.0737°
perigee height: 1129 km
apogee height: 35227 km
right ascension of ascending node: 216.6037°
argument of perigee: 312.4380°
revolutions per day: 2.25607050
mean anomaly at epoch: 136.5006°
orbit number at epoch: 18661

The dashed part of the orbit path shows where the satellite is in the earth's shadow,  

DLR